| time (UTC) | temp C | wind direction | speed KPH | gust KPH | rain 1hr cm | rain 24hr cm | rain mn cm | humidity % | barometer mb |
| 20260508021505 | 17 | 123 | 8.0 | 19.3 | 0.00 | 0.00 | 0.00 | 57 | 879.3 |
| 20260508020112 | 18 | 150 | 9.7 | 22.5 | 0.00 | 0.00 | 0.00 | 47 | 879.2 |
| 20260508014504 | 19 | 162 | 11.3 | 22.5 | 0.00 | 0.00 | 0.00 | 43 | 879.2 |
| 20260508013004 | 19 | 117 | 12.9 | 24.1 | 0.00 | 0.00 | 0.00 | 42 | 879.2 |
| 20260508011502 | 20 | 96 | 12.9 | 20.9 | 0.00 | 0.00 | 0.00 | 47 | 879.2 |
| 20260508010002 | 20 | 128 | 12.9 | 24.1 | 0.00 | 0.00 | 0.00 | 46 | 879.2 |
| 20260508004501 | 20 | 149 | 12.9 | 22.5 | 0.00 | 0.00 | 0.00 | 50 | 879.1 |
| 20260508003001 | 20 | 119 | 12.9 | 24.1 | 0.00 | 0.00 | 0.00 | 47 | 879.1 |
| 20260508001605 | 21 | 115 | 14.5 | 22.5 | 0.00 | 0.00 | 0.00 | 53 | 879.1 |
| 20260508000105 | 21 | 107 | 12.9 | 25.7 | 0.00 | 0.00 | 0.00 | 52 | 879.1 |
| 20260507234559 | 21 | 128 | 16.1 | 24.1 | 0.00 | 0.00 | 0.00 | 50 | 879.0 |
| 20260507233058 | 21 | 140 | 12.9 | 25.7 | 0.00 | 0.00 | 0.00 | 53 | 879.0 |
| 20260507231558 | 21 | 96 | 11.3 | 24.1 | 0.00 | 0.00 | 0.00 | 52 | 879.0 |
| 20260507230057 | 21 | 153 | 17.7 | 25.7 | 0.00 | 0.00 | 0.00 | 49 | 879.1 |
| 20260507224555 | 21 | 102 | 12.9 | 27.4 | 0.00 | 0.00 | 0.00 | 49 | 879.1 |
| 20260507223055 | 21 | 114 | 12.9 | 25.7 | 0.00 | 0.00 | 0.00 | 49 | 879.2 |
| 20260507221554 | 21 | 150 | 14.5 | 25.7 | 0.00 | 0.00 | 0.00 | 49 | 879.2 |
| 20260507220052 | 21 | 117 | 17.7 | 29.0 | 0.00 | 0.00 | 0.00 | 48 | 879.4 |
| 20260507214555 | 21 | 126 | 14.5 | 24.1 | 0.00 | 0.00 | 0.00 | 46 | 879.7 |
| 20260507213056 | 21 | 116 | 16.1 | 25.7 | 0.00 | 0.00 | 0.00 | 49 | 879.7 |
| 20260507211553 | 22 | 161 | 14.5 | 22.5 | 0.00 | 0.00 | 0.00 | 49 | 879.7 |
| 20260507210048 | 22 | 170 | 12.9 | 24.1 | 0.00 | 0.00 | 0.00 | 50 | 879.9 |
| 20260507204548 | 22 | 92 | 17.7 | 25.7 | 0.00 | 0.00 | 0.00 | 44 | 880.0 |
| 20260507203048 | 22 | 104 | 14.5 | 25.7 | 0.00 | 0.00 | 0.00 | 45 | 880.0 |
| 20260507201550 | 22 | 165 | 14.5 | 20.9 | 0.00 | 0.00 | 0.00 | 49 | 880.0 |
| 20260507200047 | 22 | 98 | 6.4 | 20.9 | 0.00 | 0.00 | 0.00 | 49 | 880.0 |
| 20260507194547 | 23 | 168 | 12.9 | 20.9 | 0.00 | 0.00 | 0.00 | 45 | 880.2 |
| 20260507193046 | 23 | 100 | 14.5 | 20.9 | 0.00 | 0.00 | 0.00 | 45 | 880.3 |
| 20260507191545 | 23 | 273 | 8.0 | 19.3 | 0.00 | 0.00 | 0.00 | 26 | 880.5 |
| 20260507190043 | 23 | 292 | 3.2 | 16.1 | 0.00 | 0.00 | 0.00 | 28 | 880.5 |
| 20260507184542 | 23 | 244 | 6.4 | 20.9 | 0.00 | 0.00 | 0.00 | 28 | 880.6 |
| 20260507183050 | 23 | 350 | 6.4 | 14.5 | 0.00 | 0.00 | 0.00 | 24 | 880.8 |
| 20260507181539 | 23 | 279 | 9.7 | 19.3 | 0.00 | 0.00 | 0.00 | 32 | 880.8 |
| 20260507180047 | 22 | 268 | 17.7 | 27.4 | 0.00 | 0.00 | 0.00 | 32 | 880.8 |
| 20260507174535 | 22 | 275 | 12.9 | 24.1 | 0.00 | 0.00 | 0.00 | 33 | 880.9 |
| 20260507173044 | 22 | 277 | 16.1 | 24.1 | 0.00 | 0.00 | 0.00 | 37 | 880.9 |
| 20260507171533 | 22 | 296 | 9.7 | 22.5 | 0.00 | 0.00 | 0.00 | 33 | 880.8 |
| 20260507170044 | 22 | 289 | 17.7 | 25.7 | 0.00 | 0.00 | 0.00 | 32 | 880.8 |
| 20260507164530 | 22 | 284 | 9.7 | 19.3 | 0.00 | 0.00 | 0.00 | 31 | 880.7 |
| 20260507163029 | 22 | 285 | 14.5 | 20.9 | 0.00 | 0.00 | 0.00 | 33 | 880.8 |
| 20260507161528 | 22 | 285 | 8.0 | 16.1 | 0.00 | 0.00 | 0.00 | 33 | 880.8 |
| 20260507160026 | 21 | 290 | 4.8 | 11.3 | 0.00 | 0.00 | 0.00 | 33 | 880.7 |
| 20260507154519 | 18 | 294 | 3.2 | 6.4 | 0.00 | 0.00 | 0.00 | 43 | 880.7 |
| 20260507153015 | 16 | 290 | 0.0 | 6.4 | 0.00 | 0.00 | 0.00 | 70 | 880.7 |
| 20260507151516 | 14 | 290 | 3.2 | 6.4 | 0.00 | 0.00 | 0.00 | 72 | 880.7 |
| 20260507150007 | 12 | 290 | 4.8 | 8.0 | 0.00 | 0.03 | 0.00 | 76 | 880.7 |
| 20260507144504 | 11 | 284 | 6.4 | 8.0 | 0.00 | 0.03 | 0.00 | 80 | 880.7 |
| 20260507143002 | 10 | 281 | 6.4 | 8.0 | 0.00 | 0.03 | 0.00 | 81 | 880.6 |
| 20260507141605 | 8 | 281 | 8.0 | 9.7 | 0.00 | 0.03 | 0.00 | 85 | 880.4 |
| 20260507140103 | 7 | 277 | 8.0 | 11.3 | 0.00 | 0.03 | 0.00 | 87 | 880.4 |
| 20260507134558 | 6 | 289 | 8.0 | 11.3 | 0.00 | 0.03 | 0.00 | 90 | 880.5 |
| 20260507133059 | 6 | 283 | 8.0 | 11.3 | 0.00 | 0.03 | 0.00 | 92 | 880.4 |
| 20260507131558 | 5 | 289 | 4.8 | 8.0 | 0.00 | 0.03 | 0.00 | 92 | 880.3 |
| 20260507130105 | 4 | 294 | 8.0 | 9.7 | 0.00 | 0.03 | 0.00 | 92 | 880.1 |
| 20260507124558 | 4 | 306 | 4.8 | 9.7 | 0.00 | 0.03 | 0.00 | 91 | 880.0 |
| 20260507123055 | 5 | 288 | 6.4 | 9.7 | 0.00 | 0.03 | 0.00 | 91 | 879.9 |
| 20260507121555 | 5 | 294 | 4.8 | 9.7 | 0.00 | 0.03 | 0.00 | 91 | 879.9 |
| 20260507120047 | 5 | 291 | 4.8 | 11.3 | 0.00 | 0.03 | 0.00 | 90 | 879.9 |
| 20260507114545 | 5 | 298 | 3.2 | 6.4 | 0.00 | 0.03 | 0.00 | 90 | 879.9 |
| 20260507113046 | 5 | 298 | 4.8 | 8.0 | 0.00 | 0.03 | 0.00 | 89 | 879.8 |
| 20260507111541 | 5 | 298 | 3.2 | 8.0 | 0.00 | 0.03 | 0.00 | 90 | 879.9 |
| 20260507110049 | 5 | 298 | 1.6 | 6.4 | 0.00 | 0.03 | 0.00 | 89 | 879.9 |
| 20260507104546 | 6 | 298 | 3.2 | 6.4 | 0.00 | 0.03 | 0.00 | 89 | 879.8 |
| 20260507103055 | 6 | 302 | 4.8 | 8.0 | 0.00 | 0.03 | 0.00 | 89 | 879.9 |
| 20260507101538 | 6 | 297 | 3.2 | 6.4 | 0.00 | 0.03 | 0.00 | 89 | 879.9 |
| 20260507100031 | 6 | 292 | 4.8 | 9.7 | 0.00 | 0.03 | 0.00 | 88 | 880.0 |
| 20260507094531 | 6 | 118 | 4.8 | 8.0 | 0.00 | 0.03 | 0.00 | 86 | 880.1 |
| 20260507093025 | 7 | 118 | 3.2 | 6.4 | 0.00 | 0.03 | 0.00 | 85 | 880.1 |
| 20260507091534 | 7 | 118 | 1.6 | 4.8 | 0.00 | 0.03 | 0.00 | 84 | 880.1 |
| 20260507090019 | 7 | 118 | 0.0 | 4.8 | 0.00 | 0.03 | 0.00 | 82 | 880.2 |
| 20260507084534 | 8 | 118 | 0.0 | 0.0 | 0.00 | 0.03 | 0.00 | 81 | 880.4 |
| 20260507083012 | 9 | 118 | 0.0 | 0.0 | 0.00 | 0.03 | 0.00 | 78 | 880.4 |
| 20260507081510 | 10 | 118 | 0.0 | 3.2 | 0.00 | 0.03 | 0.00 | 76 | 880.4 |
| 20260507080004 | 11 | 118 | 0.0 | 3.2 | 0.00 | 0.03 | 0.00 | 71 | 880.5 |
| 20260507074500 | 12 | 118 | 1.6 | 8.0 | 0.00 | 0.03 | 0.00 | 61 | 880.5 |
| 20260507073102 | 11 | 150 | 6.4 | 9.7 | 0.00 | 0.03 | 0.00 | 61 | 880.5 |
| 20260507071605 | 11 | 142 | 6.4 | 9.7 | 0.00 | 0.03 | 0.00 | 64 | 880.6 |
| 20260507070105 | 11 | 138 | 3.2 | 9.7 | 0.00 | 0.03 | 0.03 | 68 | 880.7 |
| 20260507064557 | 11 | 136 | 3.2 | 12.9 | 0.00 | 0.03 | 0.03 | 71 | 880.7 |
| 20260507063053 | 11 | 154 | 0.0 | 0.0 | 0.00 | 0.03 | 0.03 | 74 | 880.7 |
| 20260507061553 | 11 | 154 | 0.0 | 8.0 | 0.00 | 0.03 | 0.03 | 69 | 880.8 |
| 20260507060050 | 11 | 135 | 4.8 | 8.0 | 0.00 | 0.03 | 0.03 | 69 | 880.7 |
| 20260507054609 | 12 | 140 | 4.8 | 11.3 | 0.00 | 0.03 | 0.03 | 67 | 880.8 |
| 20260507053102 | 12 | 100 | 6.4 | 9.7 | 0.00 | 0.03 | 0.03 | 68 | 880.8 |
| 20260507051556 | 11 | 114 | 6.4 | 12.9 | 0.00 | 0.03 | 0.03 | 72 | 880.8 |
| 20260507050054 | 11 | 142 | 4.8 | 9.7 | 0.00 | 0.03 | 0.03 | 76 | 880.7 |
| 20260507044554 | 11 | 158 | 3.2 | 8.0 | 0.00 | 0.03 | 0.03 | 78 | 880.8 |
| 20260507043047 | 11 | 134 | 4.8 | 9.7 | 0.00 | 0.03 | 0.03 | 77 | 880.7 |
| 20260507041559 | 11 | 136 | 4.8 | 8.0 | 0.00 | 0.03 | 0.03 | 75 | 880.7 |
| 20260507040045 | 12 | 113 | 6.4 | 14.5 | 0.00 | 0.03 | 0.03 | 73 | 880.6 |
| 20260507034546 | 11 | 140 | 4.8 | 12.9 | 0.00 | 0.03 | 0.03 | 75 | 880.4 |
| 20260507033045 | 11 | 119 | 6.4 | 11.3 | 0.00 | 0.03 | 0.03 | 77 | 880.3 |
| 20260507031545 | 11 | 109 | 3.2 | 8.0 | 0.00 | 0.03 | 0.03 | 78 | 880.3 |
| 20260507030044 | 11 | 101 | 4.8 | 11.3 | 0.00 | 0.03 | 0.03 | 80 | 880.2 |
| 20260507024547 | 11 | 110 | 4.8 | 11.3 | 0.00 | 0.03 | 0.03 | 86 | 880.1 |
| 20260507023043 | 12 | 114 | 4.8 | 9.7 | 0.00 | 0.03 | 0.03 | 83 | 880.0 |